Terminal Aerodrome Forecast
Issued by NWS

Home | Current Version | Previous Version | Graphics & Text | Print | Product List | Glossary On
Versions: 1 2 3 4 5 6 7 8 9 10 11 12 13 14 15 16 17 18 19 20 21
825
FTUS43 KICT 260158 AAA
TAFHUT
TAF AMD
KHUT 260158Z 2602/2624 36007KT P6SM FEW045
     FM260300 36005KT P6SM SCT050
     FM260400 35004KT P6SM SCT250
     FM261100 26004KT 3SM BR FEW005
     FM261400 19007KT P6SM SCT250
     FM262100 35014KT P6SM BKN090=

USA.gov is the U.S. government's official web portal to all federal, state and local government web resources and services.